Regional Weather Roundup
Issued by NWS Mt. Holly, NJ

Home | Current Version | Previous Version | Text Only | Print | Product List | Glossary On
Versions: 1 2 3 4 5 6 7 8 9 10 11 12 13 14 15 16 17 18 19 20 21 22 23 24 25 26 27
000
ASUS41 KPHI 311610
RWRPHI

REGIONAL WEATHER ROUNDUP
NATIONAL WEATHER SERVICE MOUNT HOLLY NJ
1200 PM EDT FRI OCT 31 2014

NOTE:  "FAIR" INDICATES FEW OR NO CLOUDS BELOW 12,000 FEET WITH NO
SIGNIFICANT WEATHER AND/OR OBSTRUCTIONS TO VISIBILITY.

 * = STATION DOES NOT REPORT PRECIPITATION (E.G. RAIN, SNOW, ETC.)
        OR FOG.

NJZ015>026-311700-
SOUTHERN NEW JERSEY

CITY           SKY/WX    TMP DP  RH WIND       PRES   REMARKS
POMONA         CLOUDY    52  42  69 N9        29.94F
RIO GRANDE*    CLOUDY    52  39  62 N6        29.95F
MILLVILLE      CLOUDY    51  39  63 N12       29.94F
WRIGHTSTOWN    CLOUDY    48  38  69 N7        29.94F
MOUNT HOLLY    CLOUDY    49  37  63 N8        29.96F
TRENTON        CLOUDY    49  35  58 N6        29.97F

$$
NJZ001>014-311700-
NORTHERN NEW JERSEY

CITY           SKY/WX    TMP DP  RH WIND       PRES   REMARKS
SUSSEX         CLOUDY    48  36  63 NE9       29.99F
ANDOVER*         N/A     47  35  63 NE6       29.99F
MORRISTOWN     CLOUDY    50  36  57 NE8       29.99F
NEWARK         CLOUDY    51  36  56 N9        29.98F
TETERBORO      CLOUDY    53  36  52 VRB5      29.97F
CALDWELL       CLOUDY    49  35  58 CALM      29.98F
SOMERVILLE     CLOUDY    50  35  56 CALM      29.97F
ALLAIRE*       CLOUDY    52  36  54 NE8       29.96S
TOMS RIVER*    CLOUDY    52  39  62 N8        29.95F

$$
PAZ043-044-047-054-055-060>062-066>071-311700-
EASTERN PENNSYLVANIA

CITY           SKY/WX    TMP DP  RH WIND       PRES   REMARKS
PHILADELPHIA   CLOUDY    50  36  58 N7        29.98F
NORTH PHILA    CLOUDY    52  35  52 N7        29.99F
BLUE BELL      PTSUNNY   50  36  57 E3        29.97F
DOYLESTOWN     CLOUDY    48  37  65 N6        29.97F
QUAKERTOWN*    PTSUNNY   48  36  61 NE5       29.99F
POTTSTOWN      PTSUNNY   49  36  61 NE5       29.99F
LANCASTER      CLOUDY    49  32  52 E9        29.99S
COATESVILLE    PTSUNNY   48  36  61 N6        29.97F
READING        PTSUNNY   51  37  58 S3        29.98F
ALLENTOWN      PTSUNNY   49  36  61 E7        30.00S
MOUNT POCONO   PTSUNNY   43  31  62 E8        29.95F
HAZLETON       MOSUNNY   46  32  57 E5        29.98S
WILKES BARRE   SUNNY     49  33  54 NE7       29.97F

$$
DEZALL-MDZ008-012-015-019-020-311700-
DELAWARE AND EASTERN MARYLAND

CITY           SKY/WX    TMP DP  RH WIND       PRES   REMARKS
WILMINGTON     PTSUNNY   51  38  60 N6        29.98F
DOVER          CLOUDY    51  42  72 N9        29.92F
GEORGETOWN     CLOUDY    53  38  56 NE10      29.95F
EASTON         CLOUDY    54  39  58 N5        29.98F
PATUXENT       CLOUDY    56  37  49 N12       29.94F
OCEAN CITY     CLOUDY    54  37  52 N12       29.93F
WALLOPS ISLAND CLOUDY    53  38  56 NE10      29.93F
CAMBRIDGE      CLOUDY    54  36  50 NE7       29.93F
SALISBURY      CLOUDY    55  39  54 NE9       29.93F

$$
PAZ001-021-NYZ056-072-MDZ011-DCZ001-311700-
OTHER NEARBY LOCATIONS

CITY           SKY/WX    TMP DP  RH WIND       PRES   REMARKS
HARRISBURG     CLOUDY    50  35  56 S5        29.98F
STATE COLLEGE  CLOUDY    45  36  70 VRB5      29.95F
WILLIAMSPORT   CLOUDY    47  36  65 CALM      29.97F
BINGHAMTON     CLOUDY    44  33  65 VRB7      29.96F
NEW YORK CITY  CLOUDY    52  34  50 VRB6      30.00F
BALTIMORE      CLOUDY    52  36  54 NE8       29.97F
WASHINGTON DC  PTSUNNY   56  37  49 NE7       29.96F

$$



USA.gov is the U.S. government's official web portal to all federal, state and local government web resources and services.